Location: Sternwarte Stuttgart
(48.7670°N, 9.1830°E)
Time: 01:17:47
(UTC+01:00)

Cosmos 2278 - Pass Details

Date: 24 January 2019
Orbit: 840 x 853 km, 71.1° (Epoch: 15 February)

Event Time Altitude Azimuth Distance (km) Brightness Sun altitude
Rises 07:22:57 0° 193° (SSW) 3,380 6.9 -6.9°
Reaches altitude 10° 07:25:24 10° 190° (S) 2,449 6.3 -6.5°
Maximum altitude 07:30:54 59° 112° (ESE) 968 4.5 -5.7°
Drops below altitude 10° 07:36:28 10° 34° (NE) 2,470 6.3 -4.8°
Sets 07:38:56 0° 31° (NNE) 3,411 6.9 -4.4°
